Location: Baptist Hill School
(44.4501°N, 71.7104°W)
Time: 01:02:36
(UTC+00:00)

ACS3 Solar Sail - Visible Passes

Search period start: 13 October 2024 00:00
Search period end: 23 October 2024 00:00
Orbit: 960 x 1033 km, 97.5° (Epoch: 12 October)

Date Brightness Start Highest point End Pass type
(mag) Time Alt. Az. Time Alt. Az. Time Alt. Az.
13 Oct 3.0 01:31:10 36° WSW 01:32:14 39° W 01:38:06 10° NNW visible
13 Oct 3.6 22:34:16 10° ENE 22:36:37 12° NE 22:38:58 10° NNE visible
14 Oct 1.8 00:17:38 48° SE 00:19:19 65° ENE 00:25:34 10° N visible
14 Oct 3.8 02:02:45 22° W 02:03:39 22° W 02:08:28 10° NW visible
14 Oct 3.1 23:04:06 15° E 23:07:10 21° ENE 23:11:37 10° NNE visible
15 Oct 1.9 00:49:13 60° SSW 00:50:22 76° WSW 00:56:43 10° NNW visible
15 Oct 4.4 02:34:20 12° W 02:35:14 12° W 02:37:31 10° WNW visible
15 Oct 2.5 23:35:40 27° ESE 23:37:52 34° ENE 23:43:25 10° N visible
16 Oct 2.7 01:20:47 42° WSW 01:21:34 44° W 01:27:36 10° NNW visible
16 Oct 3.6 22:25:05 10° ENE 22:26:10 10° NE 22:27:14 10° NE visible
17 Oct 1.9 00:07:13 46° ESE 00:08:43 57° ENE 00:14:51 10° N visible
17 Oct 3.6 01:52:20 25° W 01:52:55 26° W 01:58:04 10° NW visible
17 Oct 3.2 22:53:40 13° E 22:56:38 18° ENE 23:00:40 10° NNE visible
18 Oct 1.8 00:38:47 67° S 00:39:43 86° WSW 00:46:03 10° NNW visible
18 Oct 4.3 02:23:54 14° W 02:24:25 14° W 02:27:37 10° NW visible
18 Oct 2.6 23:25:12 25° E 23:27:16 30° ENE 23:32:34 10° N visible
19 Oct 2.5 01:10:19 50° WSW 01:10:51 51° W 01:16:58 10° NNW visible
19 Oct 2.0 23:56:44 43° ESE 23:58:04 49° ENE 00:04:04 10° N visible
20 Oct 3.4 01:41:51 29° W 01:42:07 29° W 01:47:32 10° NNW visible
20 Oct 3.3 22:43:09 12° E 22:46:02 16° ENE 22:49:33 10° NNE visible
21 Oct 1.7 00:28:16 71° SE 00:28:59 83° ENE 00:35:17 10° N visible
21 Oct 4.1 02:13:23 17° W 02:13:34 17° W 02:17:24 10° NW visible
21 Oct 2.8 23:14:40 22° E 23:16:36 26° ENE 23:21:37 10° N visible
22 Oct 2.2 00:59:47 58° WSW 01:00:04 59° W 01:06:14 10° NNW visible
22 Oct 2.2 23:46:11 39° E 23:47:20 43° ENE 23:53:09 10° N visible
